Hourly Data Report for May 26, 2016

All times are specified in Local Standard Time (LST). Add 1 hour to adjust for Daylight Saving Time where and when it is observed.

LA RONGE RCS
SASKATCHEWAN

55°08'47.020" N
105°16'13.030" W
378.60 m
4064149
71586
XOX

Download Data

Hourly Data (May 2016)
Hourly Data Report for May 26, 2016
TIME Temp Definition
°C
Dew Point Definition
°C
Rel Hum Definition
%
Wind Dir Definition
10's deg

Wind Spd Definition
km/h
Visibility Definition
km
Stn Press Definition
kPa
Hmdx Definition


Wind Chill Definition


Weather Definition


00:00 8.9 6.8 87   0   96.67     LegendNANA
01:00 8.3 6.6 89   0   96.65     LegendNANA
02:00 7.2 5.7 91   0   96.64     LegendNANA
03:00 6.6 5.2 91 0 1   96.68     LegendNANA
04:00 5.6 4.3 91   0   96.69     LegendNANA
05:00 5.9 4.6 91 19 2   96.69     LegendNANA
06:00 7.1 5.3 88   0   96.69     LegendNANA
07:00 12.0 9.9 87 2 1   96.70     LegendNANA
08:00 15.4 10.2 71 15 2   96.69     LegendNANA
09:00 15.6 9.0 65 6 11   96.71     LegendNANA
10:00 15.7 8.9 64 7 14   96.72     LegendNANA
11:00 16.3 9.3 63 6 14   96.73     LegendNANA
12:00 15.7 9.4 66 6 17   96.77     LegendNANA
13:00 16.9 9.4 61 6 16   96.76     LegendNANA
14:00 17.8 9.1 57 6 17   96.74     LegendNANA
15:00 18.6 8.4 51 6 17   96.74     LegendNANA
16:00 18.8 8.0 49 7 18   96.74     LegendNANA
17:00 18.5 7.8 50 8 17   96.74     LegendNANA
18:00 17.6 7.9 53 6 18   96.74     LegendNANA
19:00 16.7 7.5 55 6 18   96.75     LegendNANA
20:00 15.8 6.9 56 6 20   96.78     LegendNANA
21:00 14.0 6.5 61 7 14   96.85     LegendNANA
22:00 12.2 5.9 66 6 20   96.91     LegendNANA
23:00 11.1 5.5 68 6 18   96.95     LegendNANA

Notes on Data Quality.

Legend

  • E = Estimated
  • M = Missing
  • NA = Not Available
Date modified: